This demonstration page uses our WeatherBlox Daily Observations layout. Learn more.

Left ArrowRight Arrow

39.01783, -85.05884

Hourly Observations for February 6, 2016

Temp ( °F °C ) Dew Point ( °F °C ) Humidity (%) Winds ( mph kmh ) Pressure ( in mb ) Visibility ( mi km ) Precip ( " mm )
12:52 am 00:52 Partly Cloudy 29 -1.7 24 -4.4 82 82 NW 5 7 30.35 1028 8 13 0.00 0.00
1:52 am 01:52 Partly Cloudy 28 -2.2 24 -4.4 85 85 NW 3 6 30.33 1027 8 13 0.00 0.00
2:52 am 02:52 Mostly Cloudy with Mist and Fog 27 -2.8 24 -4.4 89 89 Calm 30.34 1027 6 10 0.00 0.00
4:52 am 04:52 Mostly Cloudy with Mist and Fog 26 -3.3 23 -5 88 88 Calm 30.34 1028 6 10 0.00 0.00
5:52 am 05:52 Partly Cloudy with Mist and Fog 24 -4.4 21 -6.1 88 88 Calm 30.35 1028 6 10 0.00 0.00
6:52 am 06:52 Mostly Clear with Mist and Fog 25 -3.9 22 -5.6 88 88 Calm 30.36 1028 6 10 0.00 0.00
7:47 am 07:47 Partly Cloudy with Mist and Fog 22 -5.6 21 -6.1 96 96 Calm 30.36 1028 3 5 0.00 0.00
8:52 am 08:52 Partly Cloudy with Mist and Fog 27 -2.8 25 -3.9 92 92 Calm 30.36 1028 3 5 0.00 0.00
9:52 am 09:52 Partly Cloudy with Mist and Fog 31 -0.6 27 -2.8 85 85 SSE 3 6 30.36 1028 5 8 0.00 0.00
10:52 am 10:52 Partly Cloudy 36 2.2 25 -3.9 64 64 SW 6 9 30.35 1028 8 13 0.00 0.00
11:52 am 11:52 Partly Cloudy 41 5 23 -5 49 49 W 8 13 30.35 1028 10 16 0.00 0.00
12:52 pm 12:52 Mostly Cloudy 43 6.1 22 -5.6 43 43 W 7 11 30.32 1027 10 16 0.00 0.00
1:52 pm 13:52 Mostly Cloudy 43 6.1 23 -5 45 45 WSW 7 11 30.29 1026 10 16 0.00 0.00
2:52 pm 14:52 Partly Cloudy 46 7.8 22 -5.6 38 38 SW 10 17 30.26 1025 10 16 0.00 0.00
4:52 pm 16:52 Mostly Sunny 46 7.8 23 -5 40 40 W 10 17 30.25 1025 10 16 0.00 0.00
5:52 pm 17:52 Mostly Sunny 43 6.1 22 -5.6 43 43 W 7 11 30.26 1025 10 16 0.00 0.00
6:52 pm 18:52 Clear 42 5.6 22 -5.6 45 45 WSW 3 6 30.26 1025 10 16 0.00 0.00
7:52 pm 19:52 Clear 36 2.2 22 -5.6 57 57 SSW 3 6 30.26 1025 10 16 0.00 0.00
8:52 pm 20:52 Clear 33 0.6 26 -3.3 75 75 S 3 6 30.26 1025 10 16 0.00 0.00
9:52 pm 21:52 Clear 31 -0.6 25 -3.9 79 79 SSW 6 9 30.25 1024 10 16 0.00 0.00
10:52 pm 22:52 Clear 33 0.6 23 -5 66 66 S 6 9 30.23 1024 10 16 0.00 0.00
11:52 pm 23:52 Clear 34 1.1 23 -5 64 64 S 7 11 30.22 1023 10 16 0.00 0.00

Powered by AerisWeather